Location: Unspecified
(51.0950°N, 12.9690°E)
Time: 16:34:57
(UTC+00:00)

NOSS 3-2 (A) - Pass Details

Date: 28 October 2021
Orbit: 771 x 1437 km, 63.4° (Epoch: 21 November)

Event Time Altitude Azimuth Distance (km) Brightness Sun altitude
Rises 18:44:51 0° 314° (NW) 3,857 7.5 -28.0°
Reaches altitude 10° 18:47:21 10° 316° (NW) 2,989 6.7 -28.4°
Maximum altitude 18:54:39 80° 44° (NE) 1,270 3.9 -29.5°
Enters shadow 18:55:43 68° 109° (ESE) 1,351 3.9 -29.6°
